EUTELSAT 25B (39233 NORAD) Tracking and Keplerian Element Data

This shows tracking and keplerian element data for the satellite.

Feedback or suggestion? Click here.




ElementValue
Catalog39233
NameEUTELSAT 25B
Epoch Orbit2346
Epoch Day22.76167587
Epoch Year2020
RAAN9.5128
Inclination0.0462
Eccentricity0.0001608
Argument of Perigee291.7573
Mean Anonmoly119.9798
Mean Motion1.00268667
Decay Rate1.35E-06
L11 39233U 13044A 20022.76167587 .00000135 00000-0 00000+0 0 9993
L22 39233 0.0462 9.5128 0001608 291.7573 119.9798 1.00268667 23463

Live tracking and technical data element details for EUTELSAT 25B (NORAD 39233). EUTELSAT 25B can be tracked NOW for your location showing map with azimuth and elevation plus other details from your city location.

Track the satellite on the map from your city or location and see movement details for azimuth, elevation, latitude, longitude, range, height, and movement on the map or in text.







IsCatalogInMostPopularTable: catalog: 39233, numindb: 1152
Update: records affected: 1



GetName: 39233 EUTELSAT 25B

Hit Count: updated at: Thu, 23 Jan 2020 16:26:58 GMT